sat.trackr.live / text

‹ back to catalog

STARLINK-35930

NORAD 66599 · 2025-270M

PAYLOAD ACTIVE UNKNOWN

§ Identity

Operator
Country
US
Launch date
2025-11-22
Launch site
AFETR
Launch vehicle
Mass (kg)
RCS (m²)

Purposes: comms

External: N2YO · Heavens-Above · Gunter

§ Orbital elements

Epoch: 2026-05-24T20:19:42.663648Z

Period
94.27 min
Inclination
43.0030°
Eccentricity
0.0001006
Mean motion
15.27585691 rev/d
Perigee alt
482.3 km
Apogee alt
483.7 km
Semi-major
6,861.2 km
B*
3.6744e-4
RAAN
346.0439°
Arg perigee
265.8920°
Mean anomaly
94.1817°
Rev number
2,935

§ Raw data

STARLINK-359301 66599U 25270M   26144.84702157  .00009864  00000+0  36744-3 0  99952 66599  43.0030 346.0439 0001006 265.8920  94.1817 15.27585691 29353

JSON: /api/v1/satellites/66599 · /tle

For live sub-satellite position, see the globe view (requires WebGL).

§ Visibility from observer

Set your observer location to see the next 7 days of passes ≥ 10°. The values pass through the URL so the page stays shareable.

No JS? Fill the form by hand. The geolocation button needs JavaScript.